Location: Home
(42.5358°N, 72.7383°W)
Time: 19:50:24
(UTC-05:00)

A-11 Canister half - Pass Details

Date: 05 December 2021
Orbit: 1524 x 1684 km, 47.3° (Epoch: 23 January)

Event Time Altitude Azimuth Distance (km) Brightness Sun altitude
Rises 03:44:09 0° 274° (W) 4,938 - -36.3°
Reaches altitude 10° 03:47:24 10° 277° (W) 3,946 - -35.7°
Exits shadow 03:56:17 63° 324° (NW) 1,830 9.1 -34.1°
Maximum altitude 03:57:31 67° 360° (N) 1,774 9.1 -33.8°
Drops below altitude 10° 04:07:24 10° 83° (E) 3,855 11.9 -32.0°
Sets 04:10:31 0° 86° (E) 4,820 12.7 -31.4°
